Theta_e
359 359 359 358 359 358 356 353 350 352 354 350 339 342 353 354 354 353 351 351 352 350 353 351 350 350 347 349 354 351 348 345 350 348 350 348 347 345 344 347 350 354 353
359 359 359 359 358 359 358 356 354 352 352 353 355 355 355 356 355 353 354 354 353 354 353 353 352 354 353 350 348 345 348 345 344 347 348 342 345 349 348 351 348 353 352
352 359 359 359 359 359 359 357 357 356 355 353 352 354 356 352 355 354 352 353 353 354 354 353 352 351 353 351 353 353 353 351 349 350 349 353 347 346 347 348 352 350 352
349 353 355 359 357 357 357 356 357 357 356 354 355 354 357 353 354 355 356 355 352 354 355 355 355 355 353 354 352 352 353 352 353 353 352 350 351 351 352 354 352 346 346
342 343 348 352 357 358 358 357 357 357 357 356 356 355 356 357 356 354 353 357 355 354 355 356 356 353 353 354 355 355 356 355 355 355 354 354 350 349 348 347 349 352 349
334 336 341 348 348 352 353 354 356 356 355 357 357 357 357 355 352 350 356 354 356 356 355 353 354 357 358 353 351 350 351 353 353 356 359 354 350 351 352 353 352 352 352
330 331 334 338 340 342 346 351 355 355 355 356 353 358 358 357 355 351 349 350 356 356 356 356 352 355 353 356 353 353 351 344 344 346 348 352 356 350 351 354 358 357 357
329 329 330 331 333 336 339 342 346 352 355 355 355 355 356 357 358 356 352 351 347 350 354 357 356 356 352 357 357 358 357 356 354 352 349 348 346 343 345 349 352 357 358
329 330 330 331 331 331 329 333 339 341 345 352 355 355 356 356 357 357 357 355 353 350 349 352 353 355 358 357 353 354 356 359 360 359 356 354 353 351 352 353 355 354 352
325 326 327 329 330 331 331 328 330 337 340 345 349 353 354 354 354 355 355 356 355 355 353 351 349 350 351 350 356 359 356 354 354 356 357 355 353 353 353 355 354 355 352
323 323 325 326 327 328 330 331 331 331 335 340 343 346 349 351 353 354 355 355 356 356 355 355 355 354 352 350 348 348 354 357 357 356 356 356 355 353 352 350 349 351 352
320 321 322 324 325 325 327 327 329 333 335 339 341 345 348 349 351 351 351 353 354 354 355 355 355 356 354 353 352 350 348 345 351 354 356 356 354 351 349 348 347 349 351
319 319 320 321 322 325 324 324 327 327 333 337 337 340 341 341 343 347 350 349 350 350 352 353 353 354 354 354 353 353 349 347 346 349 351 353 353 353 352 348 344 342 344
318 319 319 319 319 320 322 323 324 325 327 329 331 333 332 331 335 336 338 338 335 338 340 341 345 349 351 352 352 352 352 352 348 349 350 351 352 352 353 352 350 346 345
315 318 318 318 318 319 321 321 321 321 323 322 323 324 325 326 326 327 325 325 330 334 338 339 340 342 349 355 356 354 354 354 352 351 352 353 354 354 354 352 350 348 349
311 313 315 316 317 317 318 320 319 318 319 319 320 320 321 323 323 323 325 329 330 332 334 335 338 343 346 349 355 358 357 356 356 355 355 355 354 354 354 354 353 351 351
308 309 310 310 313 314 316 317 318 317 317 318 319 320 322 321 322 323 323 327 330 331 333 332 336 342 344 349 352 352 354 355 356 358 358 358 357 355 355 354 353 352 354
307 307 307 309 310 312 313 314 315 316 318 319 319 319 320 321 320 321 326 329 330 332 332 332 336 340 344 344 347 353 354 354 353 355 358 356 351 356 357 356 355 354 354
305 305 305 306 306 308 309 312 313 314 315 316 317 318 319 320 321 323 326 327 328 330 333 335 337 339 343 347 350 354 354 352 350 352 353 355 354 355 355 355 356 357 356
303 303 303 303 304 305 306 307 309 310 311 313 316 317 318 320 323 325 327 327 326 329 329 329 330 331 332 335 343 352 353 353 355 355 354 352 350 354 355 355 356 355 354
302 302 302 302 303 303 303 305 306 306 308 309 310 312 314 316 318 319 321 322 323 322 322 321 319 322 325 328 328 336 351 353 354 356 355 353 353 353 355 355 355 355 355
300 300 300 300 300 301 302 302 303 304 305 305 306 308 310 312 316 319 320 320 318 314 313 311 312 315 317 318 321 325 329 340 348 345 346 348 345 342 350 352 353 353 355
298 298 297 297 297 297 297 298 299 300 301 302 304 306 307 308 310 312 312 312 311 310 309 308 308 310 313 315 317 317 322 325 334 339 341 345 344 343 343 347 349 352 354
297 297 295 295 295 295 295 295 296 297 297 298 300 302 304 305 306 308 308 308 307 306 305 305 305 306 307 311 314 317 316 323 327 332 335 333 335 336 338 340 342 343 343
298 296 296 295 294 293 293 293 293 294 295 296 297 298 300 301 302 303 303 303 302 301 301 302 301 302 304 306 309 314 315 318 323 326 330 329 328 331 334 335 336 335 334
299 298 296 295 294 292 292 292 292 292 293 293 295 296 296 297 298 299 299 298 298 298 298 298 299 300 301 303 305 309 311 315 319 322 324 324 325 328 329 329 329 328 326
Wind_Speed
24 25 24 24 22 19 15 12 15 6 11 13 9 14 12 11 13 13 10 7 12 12 14 6 13 14 16 17 13 12 11 10 12 18 14 17 21 21 20 19 17 19 20
27 24 26 25 23 22 20 18 16 14 13 12 9 11 16 11 14 13 13 11 12 11 11 11 12 11 14 15 17 17 16 16 14 17 21 24 19 20 21 16 19 19 18
8 26 24 24 23 23 24 21 18 17 16 15 16 15 15 17 15 15 15 14 13 12 14 14 15 14 14 15 17 15 15 15 17 18 21 19 21 20 20 19 17 20 21
19 8 5 19 25 22 18 20 20 18 18 18 19 19 22 20 18 17 16 15 17 17 17 18 17 17 18 17 17 18 19 19 16 18 21 23 25 25 17 12 12 18 17
13 26 24 11 4 14 12 18 17 16 18 20 19 20 20 21 20 21 21 19 20 20 20 19 19 21 21 19 17 17 19 19 17 20 20 18 17 19 17 19 17 17 20
20 19 13 12 20 12 2 7 10 13 20 14 21 22 22 23 24 23 22 24 21 20 22 22 22 21 17 23 22 23 26 21 19 18 18 18 23 21 20 21 24 21 14
20 17 17 11 10 13 9 5 4 11 14 15 23 19 23 24 26 26 25 25 22 23 23 24 23 21 23 28 28 28 27 27 28 27 27 26 23 27 25 24 20 21 23
24 22 17 13 11 11 12 11 9 9 9 15 19 22 23 25 26 28 29 27 26 28 26 25 27 27 27 20 19 24 27 28 27 29 32 37 37 35 32 28 24 25 27
18 17 18 20 19 16 15 15 14 14 14 14 14 18 21 25 27 28 26 30 29 28 30 30 31 28 25 27 29 28 25 27 26 26 28 30 31 29 28 26 24 21 22
15 15 15 14 15 15 15 16 14 13 13 15 14 15 21 24 25 26 27 29 24 25 27 31 35 36 35 36 30 32 32 33 28 28 28 25 28 32 32 33 33 25 23
13 14 14 13 14 12 12 14 18 17 15 15 16 19 19 21 25 23 25 28 27 25 26 27 27 31 35 38 41 43 39 33 30 31 31 32 32 31 30 32 34 37 30
14 15 15 15 13 14 14 17 18 17 15 14 15 15 16 17 18 22 25 26 26 29 28 27 28 27 22 30 39 40 39 43 41 31 29 29 28 28 27 29 35 36 39
15 16 17 17 17 16 15 18 16 18 13 12 11 12 13 16 17 16 9 5 7 14 27 32 31 32 35 38 36 31 32 45 37 29 29 31 31 32 32 33 35 38 34
20 18 17 17 19 20 19 17 14 14 17 15 12 11 14 16 15 17 17 17 17 17 17 18 17 26 34 40 41 37 30 28 34 32 31 31 31 31 32 31 33 34 31
22 22 20 18 18 19 19 16 15 18 17 18 17 17 17 19 18 19 22 24 19 19 21 23 23 22 21 23 26 27 30 30 31 32 29 29 30 30 31 30 32 30 27
20 20 22 23 21 21 21 22 21 23 23 22 24 22 20 21 24 23 20 18 17 18 22 22 21 19 22 23 25 23 25 31 31 31 32 32 31 29 29 26 27 29 26
17 19 19 22 22 21 22 22 22 25 27 26 24 25 22 23 22 23 24 21 18 18 21 22 22 24 23 25 27 29 29 30 30 35 36 31 28 27 29 28 27 26 23
17 17 19 21 20 21 21 23 24 24 24 24 22 25 26 23 27 27 21 20 19 15 20 19 19 24 26 29 29 30 29 31 36 35 31 34 27 28 26 28 26 24 23
18 18 18 19 20 23 25 25 23 24 25 27 26 26 26 27 28 23 20 19 17 16 15 16 19 24 27 30 31 30 28 28 31 34 36 29 30 34 36 33 25 19 16
19 20 19 21 22 22 21 22 22 22 24 26 26 25 25 24 21 19 16 14 17 18 18 19 23 29 31 36 32 31 26 26 29 30 34 32 29 33 32 33 28 26 27
20 20 20 20 20 21 23 22 23 23 22 24 28 30 31 35 30 25 23 22 18 19 18 22 29 31 32 35 35 32 30 27 22 25 22 20 26 33 36 35 30 26 24
17 18 20 21 22 22 21 21 22 25 23 25 28 29 34 33 27 22 20 15 19 21 23 29 33 32 32 31 32 32 32 24 26 27 24 23 24 26 33 28 27 22 19
15 16 17 18 21 23 23 23 24 26 27 27 26 25 23 27 26 26 23 24 28 32 35 33 34 34 32 30 28 27 29 27 25 24 23 21 16 16 28 24 18 13 10
13 15 17 19 20 23 23 24 24 26 27 27 27 25 24 25 25 23 23 25 31 37 36 34 32 30 31 29 27 27 27 27 25 24 22 19 21 21 18 16 17 14 14
11 13 16 19 20 22 23 23 25 25 26 25 25 25 24 24 25 25 25 27 31 34 33 30 28 26 24 24 24 23 25 25 24 22 21 21 19 14 10 7 8 8 9
10 11 14 18 19 21 22 23 23 25 25 25 24 24 25 24 24 21 22 25 27 28 27 23 21 20 18 17 16 15 16 16 16 13 14 14 16 15 10 9 8 6 5
Wind_Direction
199 201 204 205 210 218 217 209 230 216 162 186 220 221 226 214 220 232 234 261 221 229 232 276 243 273 279 286 308 320 276 268 296 300 305 315 314 315 307 299 306 316 318
199 205 201 199 205 204 211 212 212 218 225 215 217 200 209 212 229 225 244 239 209 220 236 257 255 258 268 281 294 295 302 305 301 291 290 294 289 297 303 294 303 301 307
274 195 197 199 202 206 204 204 210 212 213 223 227 224 221 224 225 231 232 241 246 236 226 233 243 250 257 261 271 286 295 300 279 281 275 283 289 283 284 281 285 303 314
13 332 143 195 198 206 207 208 206 212 213 219 222 224 226 230 229 235 232 233 241 244 243 241 240 243 243 247 255 265 272 282 290 290 288 286 282 283 289 309 328 330 323
12 29 33 37 275 190 204 213 206 206 220 220 228 233 229 230 231 232 233 235 235 242 249 248 256 247 247 243 243 257 257 263 268 268 282 304 321 336 336 330 331 338 326
48 37 30 36 4 57 353 265 240 241 239 242 230 230 238 237 236 240 233 230 235 241 243 253 252 263 263 247 251 255 256 259 265 274 285 296 302 313 317 321 319 321 313
58 57 45 42 7 16 15 13 343 262 255 261 249 245 239 242 244 249 250 240 236 241 240 244 251 254 257 254 252 254 255 253 255 262 268 268 276 279 291 297 299 298 294
36 37 44 41 29 3 355 348 336 342 306 265 257 256 254 251 247 250 255 258 252 245 246 246 246 247 255 263 254 257 260 261 258 259 261 268 270 275 276 278 286 290 291
29 25 18 14 12 11 6 349 332 322 314 320 284 271 264 259 254 250 251 255 259 257 252 251 250 250 253 258 263 260 255 258 263 265 270 275 276 275 272 269 268 277 283
15 8 6 7 1 350 346 352 341 318 307 301 304 295 274 268 263 258 252 251 252 255 257 258 256 252 254 254 257 254 253 257 257 261 267 273 271 269 267 263 264 258 263
353 348 349 350 343 344 345 331 325 333 320 306 301 295 297 283 269 266 260 254 249 250 251 258 259 257 257 255 253 251 252 257 256 258 262 263 262 263 266 266 262 257 250
336 332 332 330 329 325 320 323 318 302 309 315 308 306 298 304 304 290 273 265 265 259 257 257 261 272 271 264 257 253 254 253 252 255 258 261 263 264 267 263 257 260 257
323 320 319 315 309 306 310 306 304 308 281 284 314 316 326 327 325 349 277 280 256 271 268 259 262 267 272 277 285 284 271 256 251 251 251 255 257 260 262 263 265 268 273
321 313 307 306 303 298 289 290 293 302 315 328 319 318 319 319 314 312 306 323 323 315 306 302 295 279 276 273 273 264 270 258 247 242 247 252 258 260 260 259 255 257 258
329 323 315 305 299 298 293 286 295 299 288 281 285 289 295 291 285 285 301 307 308 301 301 299 296 296 286 275 263 258 248 255 244 242 241 245 249 254 254 252 252 256 255
330 320 324 326 316 315 309 304 296 291 295 287 279 281 287 276 289 297 296 298 294 295 292 292 283 271 271 273 275 267 249 244 240 237 238 239 241 242 247 251 247 245 249
331 321 319 313 306 307 308 313 310 306 300 292 293 283 272 291 290 299 299 288 284 288 283 283 276 270 265 267 266 262 260 256 257 249 240 239 239 242 245 244 244 250 261
325 321 315 315 310 304 301 300 304 311 311 311 306 307 300 289 295 293 286 289 287 278 280 280 274 276 271 266 265 261 257 255 259 262 258 236 258 265 249 242 236 235 240
323 320 315 304 300 303 309 302 296 299 299 298 296 292 294 294 291 275 271 281 276 278 278 284 288 291 290 280 269 262 256 263 269 270 266 255 245 250 253 254 258 266 250
329 323 319 308 307 305 299 301 304 296 295 297 299 293 292 298 303 284 271 282 281 286 289 283 281 287 290 292 304 265 258 259 260 259 264 267 273 275 263 257 250 248 260
325 320 315 310 304 304 302 296 291 290 294 294 295 298 302 303 290 286 291 289 290 289 294 295 296 294 296 294 295 304 266 259 264 264 269 275 274 261 259 255 251 249 254
327 326 322 316 315 314 307 304 298 293 290 286 286 289 294 305 300 279 278 283 286 294 300 299 299 297 293 292 294 290 286 277 264 272 282 286 285 325 302 276 276 260 261
339 335 327 321 315 312 310 305 300 295 291 287 287 289 289 297 302 305 307 305 299 299 301 299 297 295 293 288 284 280 277 274 262 259 266 267 274 258 251 261 254 265 270
346 343 333 325 320 317 311 309 304 298 291 287 286 287 282 278 288 295 293 293 293 294 297 296 294 292 291 290 284 279 274 269 267 264 263 261 258 249 252 270 290 290 283
340 334 329 329 322 319 314 311 309 304 298 293 290 285 282 282 282 282 283 282 289 292 293 294 292 290 290 289 286 282 277 270 264 264 261 259 263 261 251 246 240 239 242
320 320 315 316 318 322 318 310 307 306 303 301 295 292 290 285 282 281 279 283 286 288 288 289 289 288 289 288 289 285 276 262 246 242 243 239 243 238 228 227 226 210 190